Location: Brahman Valley
(40.6513°N, 111.8855°W)
Time: 07:59:26
(UTC+00:00)

Tiros 1 despin weight - Pass Details

Date: 17 May 2021
Orbit: 594 x 641 km, 48.2° (Epoch: 22 June)

Event Time Altitude Azimuth Distance (km) Brightness Sun altitude
Rises 02:13:26 0° 237° (WSW) 2,897 ? 3.6°
Reaches altitude 10° 02:15:44 10° 236° (WSW) 2,000 ? 3.2°
Maximum altitude 02:20:21 84° 150° (SSE) 641 ? 2.4°
Drops below altitude 10° 02:25:02 10° 61° (ENE) 2,028 ? 1.6°
Sets 02:27:23 0° 61° (ENE) 2,942 ? 1.2°
